Location: Bronnegerveen
(52.9548°N, 6.8388°E)
Time: 01:45:51
(UTC+00:00)

SL-16 R/B - Pass Details

Date: 15 June 2025
Orbit: 985 x 1006 km, 99.7° (Epoch: 07 July)

Event Time Altitude Azimuth Distance (km) Brightness Sun altitude
Rises 01:58:02 0° 146° (SE) 3,699 5.3 -7.5°
Reaches altitude 10° 02:00:31 10° 143° (SE) 2,756 4.7 -7.3°
Maximum altitude 02:06:35 60° 65° (ENE) 1,140 3.2 -6.8°
Drops below altitude 10° 02:12:43 10° 348° (NNW) 2,786 5.5 -6.2°
Sets 02:15:14 0° 345° (NNW) 3,742 6.2 -6.0°
